sat.trackr.live / text

‹ back to catalog

STARLINK-30950

NORAD 58440 · 2023-183D

PAYLOAD ACTIVE UNKNOWN

§ Identity

Operator
Country
US
Launch date
2023-11-28
Launch site
AFETR
Launch vehicle
Mass (kg)
RCS (m²)

Purposes: comms

External: N2YO · Heavens-Above · Gunter

§ Orbital elements

Epoch: 2026-09-20T11:29:58.836480Z

Period
94.26 min
Inclination
42.9978°
Eccentricity
0.0001033
Mean motion
15.27633482 rev/d
Perigee alt
482.2 km
Apogee alt
483.6 km
Semi-major
6,861.0 km
B*
-4.2905e-4
RAAN
185.0523°
Arg perigee
326.4617°
Mean anomaly
33.6170°
Rev number
15,882

§ Raw data

STARLINK-309501 58440U 23183D   26263.47915320 -.00012069  00000+0 -42905-3 0  99902 58440  42.9978 185.0523 0001033 326.4617  33.6170 15.27633482158827

JSON: /api/v1/satellites/58440 · /tle

For live sub-satellite position, see the globe view (requires WebGL).

§ Visibility from observer

Set your observer location to see the next 7 days of passes ≥ 10°. The values pass through the URL so the page stays shareable.

No JS? Fill the form by hand. The geolocation button needs JavaScript.